Wind_Speed
15 16 16 17 17 18 19 20 21 21 21 21 21 22 23 23 24 25 26 26 27 28 29 30 32 33 34 34 35 36 36 36 36 36 37 38 38 38
17 18 18 19 19 20 21 21 22 22 23 23 23 23 24 24 24 25 26 27 28 28 30 31 32 33 34 34 36 37 38 38 38 38 38 39 40 40
19 20 20 21 22 22 22 23 23 24 24 24 25 25 25 25 26 26 26 27 27 28 29 31 32 33 34 35 36 38 39 39 39 40 40 41 40 41
21 22 23 23 24 24 24 25 25 25 25 26 26 27 27 27 27 28 27 27 28 29 29 31 32 33 35 36 37 38 39 40 41 41 41 42 43 42
23 24 24 25 25 26 26 26 26 27 27 27 27 28 29 29 29 29 29 29 30 30 30 31 32 33 35 36 37 38 39 40 41 42 43 43 44 44
25 26 26 27 27 28 28 28 28 28 28 29 29 30 30 31 31 30 31 31 32 32 32 32 33 33 35 36 38 39 39 40 41 42 43 44 44 45
27 27 28 28 29 29 29 29 29 30 30 31 31 32 32 32 32 32 32 32 33 34 34 34 34 34 35 36 37 38 39 40 41 42 43 44 45 46
29 29 29 29 30 30 30 31 32 32 32 32 33 34 34 34 34 34 34 34 34 36 36 35 35 35 35 36 37 38 39 40 41 42 43 44 45 46
30 30 30 31 31 32 32 33 34 34 35 35 35 35 36 36 36 36 36 36 36 37 37 36 37 36 36 37 37 38 39 40 41 42 43 44 44 45
32 32 32 33 34 35 35 35 35 36 36 37 37 37 38 38 39 39 38 38 38 38 39 38 38 38 37 37 37 38 38 40 41 42 43 44 45 45
34 34 34 35 36 37 37 37 37 38 39 39 39 39 39 40 41 41 41 40 39 39 40 40 39 38 38 37 38 38 38 38 40 42 43 44 45 46
35 35 36 37 38 38 39 39 39 40 41 42 42 42 42 41 42 43 43 43 42 40 41 41 40 39 38 37 38 38 38 38 39 41 42 43 44 45
37 37 38 39 40 40 41 41 42 43 43 44 44 44 44 44 44 44 44 44 43 41 41 42 41 40 39 37 37 37 38 38 38 39 40 41 43 44
39 40 41 42 42 43 43 44 45 46 46 46 46 46 46 46 45 45 44 43 43 42 42 42 42 40 39 38 36 37 37 37 38 38 39 40 41 42
41 42 43 44 45 45 46 47 48 49 49 49 49 49 49 48 46 46 45 44 43 42 42 42 42 41 40 38 37 37 37 37 37 38 39 40 40 41
43 44 45 46 47 48 48 49 51 51 51 51 51 51 50 48 47 46 45 45 44 43 42 42 42 42 41 39 38 37 37 36 36 37 38 39 40 40
46 46 47 48 49 50 51 52 52 52 52 51 51 50 49 48 47 46 45 44 43 42 41 41 41 41 40 39 37 36 36 36 36 36 37 38 39 39
49 50 50 51 52 53 53 53 53 53 52 52 51 50 49 48 46 44 43 42 41 41 40 39 38 38 38 37 37 36 35 35 35 35 36 36 36 38
51 52 53 53 54 54 54 53 52 52 51 50 49 48 47 45 44 42 41 41 40 39 38 38 37 37 36 34 34 35 34 34 34 35 35 35 35 36
53 54 54 55 54 54 53 52 52 51 50 48 47 45 44 42 41 40 39 39 38 38 37 37 36 36 36 34 33 32 33 33 33 33 33 34 35 35
54 54 54 54 53 52 51 51 50 49 47 46 44 42 41 40 38 38 38 38 38 37 36 35 35 36 35 34 32 31 32 33 33 33 33 33 34 34
55 54 53 52 51 50 49 48 47 46 44 43 42 40 39 38 37 36 36 35 36 35 34 33 33 33 33 32 31 31 31 32 32 31 31 31 32 32
54 52 51 50 49 47 46 45 43 42 41 40 38 38 37 36 35 34 33 33 33 32 31 31 31 31 30 30 30 30 30 30 31 30 30 30 30 31
Wind_Direction
318 318 318 317 317 316 316 316 314 313 310 309 307 304 302 299 296 292 289 286 283 281 277 274 270 267 265 263 261 260 258 257 256 254 253 250 249 248
314 314 313 313 313 313 313 313 313 311 310 308 308 306 304 302 298 295 292 289 286 284 280 276 273 270 267 265 262 259 259 257 256 254 254 253 250 249
310 311 311 311 311 311 311 311 311 311 309 308 307 306 304 303 301 298 295 292 289 287 284 279 276 272 270 267 265 262 260 258 256 254 253 253 252 250
308 309 308 308 309 309 309 309 310 310 309 308 307 306 305 303 301 299 296 294 291 288 286 283 279 275 272 269 267 265 262 260 258 256 254 252 251 251
306 307 306 306 307 307 307 307 307 307 308 307 307 306 304 302 300 298 297 295 293 290 287 285 282 278 275 272 269 266 264 261 259 257 255 253 251 250
304 304 304 304 304 305 305 305 305 305 305 305 305 305 304 302 300 298 297 295 294 292 289 287 284 280 277 274 270 267 265 262 260 259 256 254 252 250
303 303 303 303 303 304 303 304 304 304 304 304 304 304 303 302 300 298 296 295 294 292 291 289 286 283 279 275 272 269 266 264 262 259 257 255 253 251
301 302 302 302 303 302 302 303 303 304 304 303 303 303 303 301 300 299 298 296 295 293 292 290 288 285 281 277 272 270 268 266 263 261 258 256 254 252
300 301 301 302 302 301 301 302 302 303 303 303 303 303 302 301 300 299 299 298 296 294 293 291 289 286 283 279 275 271 268 266 264 262 260 257 255 252
299 300 300 301 302 302 301 301 301 302 302 302 302 301 301 300 299 298 298 298 297 295 294 292 288 286 284 281 277 273 270 267 264 262 260 258 255 253
298 298 299 300 301 302 302 301 301 301 300 300 300 300 299 299 298 297 297 296 295 294 293 292 289 286 284 282 278 275 272 269 265 262 260 258 256 254
297 298 298 299 300 300 300 300 300 300 299 299 300 300 299 298 297 296 295 294 293 292 291 290 289 286 284 282 279 276 272 269 266 263 261 258 256 255
297 298 298 299 300 300 299 299 299 299 299 299 298 298 297 297 296 295 294 293 292 291 289 288 287 285 283 281 280 277 273 270 267 264 261 259 257 255
298 298 299 299 299 299 299 299 299 299 299 298 298 297 296 295 294 293 292 291 291 289 287 286 285 284 282 281 280 278 274 271 268 264 261 259 257 255
297 298 298 299 299 299 299 299 299 299 298 298 298 297 295 293 292 291 291 290 289 287 285 284 283 282 282 280 278 277 274 271 268 265 261 259 258 256
297 297 298 299 299 299 299 299 299 299 298 297 296 295 294 292 291 290 290 288 287 284 282 281 281 281 280 279 278 276 274 271 268 266 262 260 259 257
296 297 298 299 299 299 299 298 298 298 297 296 295 295 293 291 290 289 288 287 285 283 281 280 279 279 279 278 276 274 273 271 268 266 264 262 259 257
297 298 299 299 300 300 299 299 298 298 296 296 295 294 292 289 289 288 287 285 283 282 281 279 277 277 276 275 274 272 271 270 268 266 265 263 260 257
298 298 299 299 299 299 299 298 298 297 296 295 294 292 291 288 286 285 285 283 282 281 280 278 277 276 276 274 272 271 271 270 268 267 266 264 261 257
298 298 299 299 299 298 298 297 297 296 295 294 293 291 290 287 285 285 284 282 281 280 279 277 276 274 274 273 271 270 270 271 269 268 266 264 261 258
297 299 299 299 298 298 298 297 296 295 294 292 290 288 288 287 286 284 282 281 280 279 279 277 276 275 274 273 271 270 269 270 270 268 267 265 261 258
299 300 300 299 299 298 298 297 296 295 292 291 288 286 286 286 286 284 282 280 279 279 279 278 276 275 274 273 272 270 269 268 268 268 267 266 262 257
299 299 299 298 298 297 297 296 294 294 293 291 288 286 285 285 285 284 283 281 279 278 278 277 275 275 275 275 273 271 269 268 267 266 266 265 262 257
Height
5862 5861 5860 5858 5856 5854 5853 5851 5850 5848 5846 5844 5843 5841 5839 5838 5836 5835 5834 5833 5833 5832 5832 5832 5832 5833 5834 5835 5836 5838 5840 5842 5845 5847 5850 5852 5855 5858
5859 5858 5856 5855 5853 5851 5849 5847 5845 5843 5841 5839 5837 5835 5834 5832 5830 5829 5827 5826 5825 5824 5824 5823 5823 5824 5824 5825 5826 5828 5830 5832 5835 5838 5840 5843 5846 5849
5855 5854 5852 5850 5848 5847 5844 5842 5840 5838 5836 5834 5831 5829 5827 5825 5824 5822 5820 5819 5818 5816 5815 5815 5815 5815 5815 5815 5817 5818 5820 5822 5824 5827 5829 5833 5835 5839
5851 5849 5847 5845 5843 5841 5839 5837 5835 5832 5830 5828 5825 5823 5821 5819 5817 5815 5813 5811 5810 5809 5807 5806 5805 5805 5805 5805 5806 5807 5809 5811 5813 5816 5818 5821 5824 5827
5846 5844 5842 5840 5838 5836 5834 5831 5829 5827 5824 5822 5820 5817 5814 5812 5810 5808 5805 5803 5801 5800 5799 5798 5796 5795 5795 5795 5795 5796 5798 5799 5801 5804 5806 5809 5812 5816
5840 5839 5837 5835 5832 5830 5828 5825 5823 5820 5818 5815 5813 5810 5807 5804 5802 5800 5797 5795 5793 5791 5789 5788 5787 5785 5784 5784 5784 5785 5786 5787 5789 5791 5794 5797 5800 5803
5834 5832 5830 5828 5826 5823 5821 5818 5816 5813 5810 5807 5805 5802 5799 5796 5793 5791 5788 5786 5784 5781 5779 5778 5776 5775 5774 5773 5772 5773 5774 5775 5776 5778 5781 5783 5787 5790
5828 5825 5823 5821 5818 5816 5813 5810 5808 5805 5802 5799 5796 5793 5790 5787 5784 5781 5778 5776 5774 5771 5769 5767 5765 5764 5762 5762 5761 5761 5761 5762 5763 5765 5768 5770 5773 5776
5820 5818 5816 5813 5810 5808 5805 5802 5799 5796 5793 5790 5787 5783 5780 5777 5774 5771 5768 5766 5763 5760 5757 5756 5754 5752 5751 5750 5749 5749 5749 5750 5750 5752 5754 5756 5759 5762
5813 5810 5807 5804 5801 5799 5796 5793 5790 5787 5783 5780 5777 5774 5770 5767 5763 5760 5757 5755 5752 5749 5745 5744 5742 5740 5739 5737 5737 5736 5736 5737 5738 5739 5740 5743 5745 5748
5804 5801 5798 5795 5792 5789 5786 5783 5780 5777 5773 5770 5767 5764 5760 5756 5752 5749 5746 5743 5741 5738 5734 5731 5730 5728 5726 5725 5724 5723 5723 5724 5724 5725 5727 5729 5731 5734
5795 5792 5789 5786 5783 5779 5776 5773 5770 5766 5762 5759 5755 5752 5748 5744 5740 5736 5733 5730 5727 5726 5722 5719 5717 5715 5714 5713 5711 5711 5710 5711 5711 5712 5713 5715 5717 5720
5785 5782 5778 5775 5772 5768 5764 5761 5758 5754 5751 5747 5743 5740 5736 5732 5728 5724 5720 5717 5714 5712 5709 5706 5704 5702 5701 5701 5700 5698 5697 5698 5698 5699 5700 5702 5704 5706
5774 5771 5767 5764 5760 5756 5753 5749 5745 5741 5737 5733 5730 5726 5722 5718 5714 5710 5707 5704 5701 5698 5696 5693 5691 5689 5688 5688 5687 5686 5685 5685 5685 5686 5687 5689 5690 5693
5762 5759 5756 5752 5748 5744 5740 5736 5731 5727 5723 5719 5715 5711 5707 5703 5699 5696 5693 5690 5687 5685 5682 5679 5677 5676 5674 5674 5674 5673 5673 5672 5672 5673 5674 5676 5677 5679
5750 5747 5743 5739 5735 5731 5727 5722 5717 5712 5707 5703 5699 5695 5691 5687 5684 5681 5678 5675 5673 5671 5668 5666 5664 5662 5661 5661 5660 5660 5660 5660 5660 5660 5661 5663 5664 5666
5737 5734 5730 5726 5721 5717 5712 5707 5702 5697 5692 5687 5683 5679 5675 5671 5668 5665 5662 5660 5657 5656 5654 5653 5651 5649 5648 5648 5647 5647 5647 5648 5648 5648 5648 5650 5652 5653
5723 5719 5715 5710 5706 5701 5696 5691 5686 5681 5676 5671 5667 5663 5659 5655 5652 5649 5647 5645 5643 5641 5640 5639 5637 5636 5635 5635 5635 5634 5634 5635 5635 5635 5636 5637 5639 5641
5708 5704 5699 5695 5690 5685 5679 5674 5669 5664 5660 5655 5651 5646 5643 5639 5637 5635 5632 5630 5629 5627 5626 5625 5624 5623 5622 5623 5623 5622 5622 5623 5623 5624 5624 5625 5627 5629
5693 5688 5683 5678 5673 5668 5663 5658 5653 5648 5643 5639 5635 5631 5628 5625 5622 5621 5619 5617 5615 5614 5614 5613 5612 5611 5610 5610 5611 5611 5610 5610 5611 5612 5612 5613 5614 5616
5677 5672 5667 5661 5656 5651 5646 5641 5637 5632 5628 5624 5620 5617 5614 5612 5610 5608 5606 5604 5603 5602 5602 5601 5600 5599 5598 5598 5599 5600 5600 5599 5599 5600 5601 5601 5603 5605
5660 5655 5650 5645 5640 5635 5630 5626 5621 5617 5613 5609 5606 5604 5601 5599 5597 5595 5594 5592 5591 5590 5590 5589 5589 5588 5587 5587 5587 5588 5589 5588 5588 5589 5590 5591 5591 5593
5644 5638 5634 5629 5625 5620 5615 5611 5607 5603 5599 5596 5593 5591 5589 5587 5586 5584 5583 5582 5580 5580 5579 5578 5578 5577 5577 5577 5577 5577 5578 5578 5578 5579 5580 5580 5581 5583